Weather History for Chillicothe, MO

Change the Weather History Date:

Saturday, March 16, 2013

  Actual Average (KIRK) Record (KIRK)
Temperature  
Mean Temperature 44 °F 41 °F  
Max Temperature 52 °F 51 °F 82 °F (2012)
Min Temperature 35 °F 31 °F 8 °F (1923)
Degree Days  
Heating Degree Days 21 24  
Month to date heating degree days 438  
Since 1 July heating degree days 4971  
Cooling Degree Days 0 0  
Month to date cooling degree days 0  
Year to date cooling degree days 0  
Moisture  
Dew Point 31 °F    
Average Humidity 70    
Maximum Humidity 86    
Minimum Humidity 60    
Precipitation  
Precipitation 0.00 in 0.09 in 1.12 in (1942)
Month to date precipitation 1.34  
Year to date precipitation 4.14  
Sea Level Pressure  
Sea Level Pressure 30.00 in    
Wind  
Wind Speed 10 mph (North)    
Max Wind Speed 14 mph    
Max Gust Speed 25 mph    
T = Trace of Precipitation, MM = Missing Value Source: NWS Daily Summary

Daily Weather History Graph

Daily Weather History Graph

Search for Another Location

Airport:

Trip Planner

Search our weather history database for the weather conditions in past years. The results will help you decide how hot, cold, wet, or windy it might be!

Date:

Astronomy

Mar. 16, 2013 Rise Set
Actual Time 7:23 AM CDT 7:22 PM CDT
Civil Twilight 6:56 AM CDT 7:49 PM CDT
Nautical Twilight 6:25 AM CDT 8:20 PM CDT
Astronomical Twilight 5:53 AM CDT 8:52 PM CDT
Moon 9:54 AM CDT (3/16) No Moon Set
Length of Visible Light 12h 52m
Length of Day
11h 58m
Waxing Crescent, 23% of the Moon is Illuminated
Mar 16
Waxing Crescent
Mar 19
First Quarter
Mar 27
Full
Apr 2
Last Quarter
Apr 10
New

Hourly Weather History & Observations

Time (CDT) Temp. Windchill Dew Point Humidity Pressure Visibility Wind Dir Wind Speed Gust Speed Precip Events Conditions
12:52 AM 52.0 °F - 45.0 °F 77% 29.71 in - NNW 9.2 mph - N/A   Unknown
1:52 AM 48.9 °F - 42.1 °F 77% 29.74 in - North 8.1 mph - N/A   Unknown
2:52 AM 46.0 °F 41.4 °F 39.9 °F 79% 29.78 in - NNW 9.2 mph - N/A   Unknown
3:52 AM 43.0 °F 37.2 °F 39.0 °F 86% 29.80 in - NNW 10.4 mph 19.6 mph N/A   Unknown
4:52 AM 42.1 °F 34.9 °F 37.0 °F 82% 29.83 in - NNW 13.8 mph 24.2 mph N/A   Unknown
5:52 AM 39.0 °F 32.3 °F 34.0 °F 82% 29.89 in - NNW 10.4 mph 25.3 mph N/A   Unknown
6:52 AM 39.0 °F 32.3 °F 33.1 °F 79% 29.95 in - North 10.4 mph 19.6 mph N/A   Unknown
7:52 AM 39.9 °F 35.1 °F 33.1 °F 77% 29.99 in - NNW 6.9 mph 19.6 mph N/A   Unknown
8:52 AM 39.9 °F 32.9 °F 32.0 °F 73% 30.01 in - North 11.5 mph 18.4 mph N/A   Unknown
9:52 AM 39.9 °F 32.5 °F 32.0 °F 73% 30.01 in - North 12.7 mph 19.6 mph N/A   Unknown
10:52 AM 39.0 °F 31.4 °F 30.9 °F 73% 30.04 in - North 12.7 mph 21.9 mph N/A   Unknown
11:52 AM 41.0 °F 35.2 °F 30.0 °F 65% 30.06 in - North 9.2 mph 18.4 mph N/A   Unknown
12:52 PM 42.1 °F 34.9 °F 28.9 °F 60% 30.07 in - NE 13.8 mph - N/A   Unknown
1:52 PM 42.1 °F 35.7 °F 28.9 °F 60% 30.08 in - NNE 11.5 mph - N/A   Unknown
2:52 PM 41.0 °F 34.3 °F 28.0 °F 60% 30.07 in - North 11.5 mph - N/A   Unknown
3:52 PM 41.0 °F 35.2 °F 28.0 °F 60% 30.07 in - NNE 9.2 mph - N/A   Unknown
4:52 PM 39.9 °F 33.9 °F 28.0 °F 63% 30.09 in - NNE 9.2 mph - N/A   Unknown
5:52 PM 39.0 °F 32.8 °F 27.0 °F 62% 30.09 in - NNE 9.2 mph - N/A   Unknown
6:52 PM 39.0 °F 34.0 °F 27.0 °F 62% 30.12 in - NE 6.9 mph - N/A   Unknown
7:52 PM 37.9 °F 32.7 °F 27.0 °F 65% 30.11 in - NNE 6.9 mph - N/A   Unknown
8:52 PM 37.0 °F 33.3 °F 27.0 °F 67% 30.12 in - NNE 4.6 mph - N/A   Unknown
9:52 PM 37.0 °F 32.4 °F 26.1 °F 65% 30.14 in - North 5.8 mph - N/A   Unknown
10:52 PM 36.0 °F 30.3 °F 26.1 °F 67% 30.16 in - North 6.9 mph - N/A   Unknown
11:52 PM 35.1 °F 27.9 °F 25.0 °F 67% 30.16 in - NNE 9.2 mph - N/A   Unknown